Wind_Speed
9 9 8 8 7 6 5 4 4 4 4 4 4 3 3 3 3 3 3 3 3 2 2 2 2 2 2 3 3 3 3 4 3 3 3 3 3 4 5 5 5 5 4
10 10 10 9 8 7 6 5 5 5 4 4 4 3 3 3 2 2 2 2 2 2 2 2 1 1 1 2 2 2 2 2 2 2 2 2 2 3 3 4 4 4 4
11 11 11 10 9 8 7 6 6 5 5 5 4 4 3 3 2 2 1 1 1 1 1 0 0 1 1 1 1 1 1 1 1 1 1 1 1 2 2 3 3 3 3
12 12 11 11 10 9 8 7 6 6 6 6 5 5 4 3 3 2 2 1 1 1 1 1 1 2 2 2 2 1 1 1 1 1 0 1 1 1 1 2 2 3 3
13 14 13 12 11 10 9 8 7 7 6 6 6 5 4 4 3 3 3 2 2 2 2 3 3 3 3 3 3 3 2 2 2 1 1 0 1 1 1 1 2 2 2
16 15 14 13 12 11 11 9 9 8 7 7 6 6 5 5 4 4 4 3 3 3 4 4 4 4 4 5 4 4 4 3 3 3 2 2 2 2 2 1 1 1 1
16 16 16 15 13 12 12 11 10 9 8 8 7 7 6 6 6 5 5 5 5 5 5 5 5 5 6 7 6 6 5 5 5 4 4 3 3 3 3 2 2 1 1
15 16 17 16 15 14 13 11 10 10 10 9 8 7 7 7 7 6 6 6 6 6 6 7 7 7 8 8 8 8 8 7 7 6 6 5 5 4 4 4 3 3 3
15 16 17 17 16 15 14 13 12 11 11 10 9 8 8 8 7 7 7 7 7 7 7 8 8 8 8 9 9 9 9 9 8 7 7 7 7 6 6 5 5 5 5
17 18 18 18 17 17 16 14 13 12 12 11 10 9 9 9 9 9 9 9 8 9 9 8 9 9 9 10 10 10 10 10 10 9 9 8 8 8 7 7 7 7 7
19 19 19 18 18 18 16 15 14 13 12 12 11 11 10 10 9 9 9 9 10 10 10 10 9 9 9 10 10 11 11 10 10 10 11 10 10 9 9 8 8 8 8
21 21 20 19 19 18 17 16 16 14 13 12 12 11 11 10 10 9 9 9 10 10 10 10 10 9 9 9 10 10 11 11 10 10 11 10 11 11 11 11 10 10 10
20 20 20 19 20 19 17 17 16 15 14 13 13 11 11 10 10 10 10 10 10 10 9 9 8 9 9 9 9 10 10 10 10 10 11 11 12 12 12 12 12 12 12
21 21 21 21 20 19 18 17 16 15 14 13 12 11 10 10 10 10 9 9 8 7 7 7 7 7 7 7 8 9 9 10 9 9 11 12 13 13 13 13 13 14 14
23 22 22 21 21 20 19 17 16 15 15 13 12 11 10 10 9 8 8 7 5 5 5 5 5 5 5 6 7 8 8 9 9 9 10 11 13 13 13 13 13 14 15
24 24 22 22 21 20 19 18 16 14 14 13 11 9 9 9 8 7 6 5 4 4 4 4 4 5 5 6 7 7 8 8 9 9 9 10 11 12 13 14 14 14 15
23 24 23 23 21 19 19 18 16 14 12 11 9 8 8 7 6 5 5 5 4 4 4 4 5 5 5 5 6 6 7 7 8 9 9 10 10 11 11 13 14 15 15
21 22 23 22 20 18 18 17 15 13 11 9 8 6 5 5 5 4 4 4 4 4 4 4 5 5 5 5 5 5 6 6 7 7 8 9 10 10 11 12 13 14 15
19 20 21 19 19 18 18 17 15 12 10 8 7 6 5 4 4 3 3 2 3 3 3 4 4 5 5 5 6 6 6 6 7 7 7 8 9 10 10 11 12 12 13
18 18 18 17 18 17 16 16 12 10 8 7 6 5 4 4 3 2 2 1 2 2 3 4 5 5 6 6 6 6 6 6 6 6 7 7 8 9 9 9 11 12 13
17 17 17 17 17 16 15 13 10 9 7 6 5 4 3 3 2 2 1 1 1 1 2 4 5 6 6 6 7 7 7 7 7 7 7 8 8 9 9 9 9 10 12
14 15 17 17 17 15 14 12 9 8 7 5 5 3 3 2 2 2 1 0 0 1 2 3 5 5 6 7 7 8 8 8 8 8 8 8 9 9 10 10 11 11 12
11 12 14 14 14 14 13 11 9 8 7 6 5 4 3 3 2 2 1 1 1 1 2 3 4 5 6 7 8 8 9 8 9 9 9 9 9 10 11 11 12 12 12
8 10 11 12 12 12 11 10 9 8 7 6 5 5 4 4 3 2 2 1 1 1 2 3 4 5 6 7 8 9 10 10 10 10 10 10 11 11 12 13 13 13 13
7 9 9 10 11 11 10 9 9 8 8 7 6 6 5 5 4 3 2 2 1 0 1 2 3 5 6 7 9 10 11 11 11 11 11 12 12 12 13 14 14 14 14
6 8 10 10 10 9 9 10 9 9 8 7 7 7 6 6 5 4 4 3 2 1 2 3 4 5 7 8 9 10 11 12 12 13 13 13 13 14 14 15 15 15 16
Wind_Direction
237 237 233 226 220 218 217 217 214 209 201 193 183 170 159 150 139 130 124 116 107 97 90 82 71 61 53 49 50 56 63 69 70 73 80 85 85 85 85 82 81 76 75
240 239 237 233 227 222 221 225 225 222 218 212 204 196 185 177 172 157 140 136 127 118 106 95 74 48 38 39 40 45 53 62 63 62 72 86 91 89 88 88 88 83 82
240 241 237 234 229 225 226 231 230 228 229 227 220 217 212 205 200 185 165 175 176 166 151 139 277 304 317 336 7 21 29 38 44 50 99 102 102 96 95 96 91 88 86
239 240 236 234 229 228 230 234 235 236 238 236 231 229 229 227 224 221 218 237 240 246 239 247 264 264 265 267 271 281 303 332 346 347 51 123 124 123 118 111 103 97 93
238 238 236 236 232 230 234 235 239 242 243 240 238 239 240 242 246 249 244 251 259 266 265 262 262 259 261 262 260 262 269 271 276 284 299 300 287 264 208 151 126 112 102
236 235 234 234 232 232 235 238 241 245 246 244 246 250 251 253 254 256 258 258 263 270 271 267 261 256 260 260 259 260 262 263 261 257 258 271 267 260 243 221 176 152 133
236 235 232 230 231 231 234 240 243 247 246 248 253 255 257 261 261 260 262 265 264 266 268 266 263 258 260 259 255 256 259 260 259 258 259 259 256 251 251 235 228 214 197
235 233 231 228 228 231 234 240 244 246 248 251 256 257 259 263 265 268 269 268 267 268 268 266 263 264 263 259 255 254 259 260 259 259 259 259 259 258 253 248 245 237 229
236 234 230 226 226 229 235 239 243 247 251 256 257 259 262 264 267 271 271 272 272 269 270 269 268 267 263 260 258 256 257 257 258 259 258 254 257 256 255 254 250 248 241
239 233 226 225 224 228 233 237 242 247 253 256 259 261 265 267 268 270 270 271 273 273 273 274 271 270 266 262 261 261 259 257 254 252 253 253 254 253 252 253 249 251 246
235 232 227 225 224 226 230 235 241 248 253 257 260 263 266 269 271 271 270 271 272 274 273 273 274 275 272 264 259 264 262 260 255 251 257 261 254 253 252 252 249 250 249
232 230 228 225 227 227 229 234 241 247 251 256 261 264 266 267 270 271 273 275 274 274 272 271 269 272 271 268 261 261 261 261 257 254 260 260 257 254 253 252 250 251 253
232 225 224 223 225 227 230 234 239 245 249 256 260 264 269 269 271 273 274 278 275 273 271 271 271 271 272 271 265 261 263 259 260 260 265 266 261 256 254 252 251 252 254
234 228 222 224 228 228 231 236 242 246 250 256 263 269 272 274 274 275 274 279 280 272 271 275 278 274 273 273 269 265 265 267 270 261 261 263 262 259 256 256 255 255 254
229 228 224 226 228 230 234 239 244 249 252 256 264 272 274 275 277 280 281 280 280 279 282 286 286 285 279 275 270 266 268 270 273 267 270 267 264 263 261 260 258 258 258
229 228 225 226 230 233 236 241 245 249 250 255 262 268 272 276 278 282 288 288 287 287 291 296 298 300 296 288 280 275 275 278 278 279 278 274 270 268 265 263 262 261 260
230 229 225 227 230 235 238 242 245 248 252 254 260 269 274 277 283 288 295 297 299 304 306 309 310 311 313 311 306 294 286 284 280 280 279 276 274 272 272 269 265 264 260
227 226 224 225 230 235 239 244 247 247 248 249 258 270 272 275 281 290 298 303 309 313 314 320 321 319 320 325 327 321 312 304 298 292 288 284 280 277 277 276 271 266 262
223 224 224 227 230 235 240 245 247 243 239 243 255 266 265 267 271 279 293 311 318 328 332 337 338 337 336 340 336 329 319 310 306 304 301 298 290 286 288 287 281 276 269
225 225 226 229 232 237 239 240 236 233 233 240 252 260 259 261 266 271 290 309 324 342 352 358 356 355 353 352 351 346 339 331 319 315 314 311 306 301 299 297 289 281 277
230 228 228 229 231 233 235 230 228 225 230 234 242 252 250 249 255 261 279 303 339 355 6 9 8 9 6 2 359 355 353 351 343 331 321 317 314 312 309 304 306 296 285
228 227 229 228 228 230 227 226 224 222 230 232 234 237 238 240 236 224 217 179 38 14 12 21 22 24 19 15 9 2 358 354 350 343 335 326 320 317 315 313 310 308 303
226 222 221 224 224 225 220 222 223 225 228 225 223 220 222 214 197 183 175 151 109 62 49 34 25 23 19 16 12 7 2 357 354 350 344 337 330 325 320 316 313 310 307
215 212 213 218 218 215 215 218 221 222 219 221 217 215 212 208 200 197 196 170 119 85 55 32 21 14 12 10 7 4 2 360 356 352 347 339 332 326 321 318 314 310 308
210 212 210 213 210 207 213 217 218 216 217 220 216 218 216 213 208 211 210 210 205 138 25 8 2 359 359 0 359 358 358 357 354 350 346 341 336 330 324 320 318 313 309
218 214 213 212 212 213 216 218 218 216 217 218 219 219 220 215 214 217 222 230 232 255 302 327 332 336 339 342 344 346 347 346 346 344 342 340 336 332 326 322 318 314 311
Height
5894 5894 5895 5896 5897 5898 5898 5898 5899 5899 5899 5899 5899 5899 5899 5899 5899 5899 5899 5899 5899 5899 5899 5898 5898 5898 5898 5897 5897 5897 5897 5896 5897 5896 5896 5897 5897 5897 5897 5897 5898 5898 5898
5892 5893 5894 5896 5896 5897 5898 5898 5899 5899 5899 5899 5899 5899 5899 5899 5899 5899 5899 5899 5899 5899 5899 5898 5898 5898 5898 5898 5897 5897 5897 5897 5897 5897 5897 5897 5897 5898 5898 5898 5898 5899 5899
5890 5892 5893 5894 5895 5896 5897 5898 5898 5899 5899 5899 5899 5899 5899 5899 5899 5899 5899 5899 5899 5899 5899 5898 5899 5898 5898 5898 5898 5898 5898 5897 5897 5897 5897 5898 5898 5898 5899 5899 5899 5900 5900
5889 5890 5892 5893 5894 5895 5896 5897 5898 5898 5899 5899 5899 5899 5899 5899 5899 5899 5899 5899 5899 5898 5898 5898 5898 5898 5898 5898 5898 5898 5898 5898 5898 5897 5897 5897 5898 5899 5899 5899 5900 5900 5901
5887 5889 5890 5892 5893 5894 5896 5897 5897 5898 5898 5898 5899 5899 5899 5899 5898 5898 5898 5898 5898 5898 5898 5898 5898 5898 5898 5897 5897 5897 5898 5898 5898 5897 5897 5897 5898 5899 5899 5900 5900 5901 5901
5885 5887 5888 5890 5892 5893 5895 5896 5896 5897 5898 5898 5898 5898 5898 5898 5898 5898 5898 5897 5897 5897 5897 5897 5897 5897 5897 5897 5897 5897 5897 5897 5897 5897 5897 5898 5898 5899 5900 5900 5901 5901 5901
5882 5884 5886 5888 5890 5892 5893 5894 5895 5896 5897 5897 5897 5897 5897 5897 5897 5897 5896 5896 5896 5896 5896 5896 5896 5896 5896 5896 5896 5896 5896 5897 5897 5897 5897 5898 5898 5899 5899 5900 5901 5901 5902
5880 5882 5884 5886 5888 5890 5892 5893 5894 5895 5896 5896 5896 5896 5896 5896 5896 5896 5895 5895 5895 5895 5895 5895 5895 5895 5895 5895 5895 5895 5895 5895 5896 5897 5897 5897 5898 5898 5899 5900 5900 5901 5902
5878 5880 5881 5884 5886 5888 5890 5891 5892 5894 5894 5894 5895 5895 5895 5895 5895 5895 5895 5894 5894 5894 5894 5894 5894 5894 5894 5894 5894 5894 5894 5894 5895 5896 5895 5895 5897 5897 5898 5899 5900 5900 5901
5876 5877 5877 5881 5883 5886 5888 5889 5891 5892 5893 5893 5893 5894 5894 5894 5894 5893 5893 5893 5893 5893 5893 5893 5892 5892 5892 5892 5892 5893 5893 5893 5894 5894 5892 5892 5895 5896 5897 5898 5899 5900 5901
5873 5874 5876 5878 5881 5883 5885 5887 5889 5890 5891 5892 5892 5892 5892 5892 5892 5892 5892 5891 5891 5891 5891 5891 5891 5890 5890 5890 5891 5891 5891 5891 5891 5892 5891 5892 5894 5895 5896 5897 5898 5899 5900
5869 5872 5874 5876 5878 5881 5883 5885 5887 5888 5889 5890 5890 5890 5890 5890 5890 5890 5890 5889 5889 5889 5889 5889 5889 5889 5888 5888 5888 5889 5889 5889 5890 5890 5889 5891 5892 5893 5894 5895 5896 5897 5898
5865 5867 5870 5873 5876 5878 5881 5882 5885 5886 5887 5888 5888 5888 5888 5888 5888 5888 5888 5887 5887 5887 5887 5887 5887 5886 5887 5886 5886 5887 5887 5887 5887 5888 5888 5889 5890 5891 5892 5893 5894 5895 5897
5862 5864 5867 5870 5873 5876 5878 5880 5882 5884 5885 5885 5886 5886 5886 5886 5886 5885 5886 5886 5885 5885 5885 5885 5885 5885 5885 5885 5885 5885 5885 5885 5884 5885 5886 5887 5888 5889 5890 5891 5892 5893 5894
5858 5861 5863 5868 5870 5874 5876 5878 5880 5882 5882 5883 5884 5884 5884 5884 5884 5884 5884 5884 5884 5884 5884 5884 5884 5884 5884 5884 5884 5884 5884 5883 5883 5882 5884 5885 5886 5887 5888 5889 5890 5891 5892
5855 5857 5861 5864 5867 5871 5873 5875 5877 5879 5880 5881 5882 5882 5882 5882 5882 5882 5882 5883 5882 5882 5883 5883 5882 5882 5883 5883 5882 5882 5882 5882 5882 5882 5883 5883 5884 5885 5885 5886 5887 5888 5889
5851 5854 5858 5862 5864 5867 5870 5873 5875 5876 5878 5879 5880 5881 5881 5881 5881 5881 5881 5882 5881 5881 5881 5881 5881 5881 5881 5881 5881 5881 5881 5881 5881 5881 5882 5882 5882 5882 5883 5884 5884 5885 5886
5846 5851 5855 5858 5862 5865 5868 5870 5873 5874 5875 5877 5878 5879 5879 5880 5880 5880 5880 5880 5881 5881 5880 5881 5880 5880 5880 5880 5880 5880 5880 5879 5879 5880 5880 5880 5880 5880 5880 5881 5881 5882 5883
5843 5847 5852 5856 5859 5862 5865 5868 5870 5872 5874 5875 5877 5877 5878 5879 5879 5879 5879 5879 5880 5880 5880 5880 5880 5880 5880 5879 5879 5879 5878 5878 5878 5878 5878 5878 5878 5878 5878 5878 5878 5879 5880
5843 5845 5849 5853 5856 5860 5863 5866 5868 5870 5872 5874 5875 5876 5877 5878 5878 5879 5879 5879 5879 5879 5880 5879 5879 5879 5879 5878 5878 5878 5877 5876 5876 5876 5876 5876 5876 5876 5876 5876 5876 5876 5877
5841 5844 5848 5851 5854 5858 5861 5864 5866 5869 5871 5872 5873 5875 5876 5877 5877 5878 5878 5878 5878 5879 5879 5879 5879 5878 5878 5878 5878 5877 5876 5876 5875 5875 5875 5875 5874 5874 5874 5874 5874 5874 5874
5840 5842 5846 5849 5852 5856 5860 5862 5865 5867 5869 5871 5872 5874 5875 5876 5877 5877 5878 5878 5878 5878 5879 5879 5879 5878 5878 5878 5877 5877 5876 5876 5875 5874 5874 5873 5873 5872 5872 5872 5872 5872 5872
5839 5842 5844 5848 5851 5855 5858 5860 5863 5866 5868 5870 5871 5873 5874 5876 5876 5877 5877 5878 5878 5878 5878 5879 5879 5879 5878 5878 5877 5877 5876 5875 5874 5874 5873 5872 5871 5871 5870 5870 5870 5869 5869
5839 5841 5844 5847 5850 5853 5856 5859 5862 5865 5867 5869 5870 5872 5874 5875 5875 5876 5877 5877 5878 5878 5878 5878 5879 5878 5878 5878 5877 5876 5875 5874 5874 5873 5872 5871 5870 5869 5868 5868 5867 5867 5867
5839 5841 5843 5846 5849 5852 5855 5858 5861 5863 5866 5868 5870 5871 5873 5874 5875 5876 5876 5877 5878 5878 5878 5878 5878 5878 5878 5877 5877 5876 5875 5874 5873 5872 5871 5870 5869 5867 5866 5865 5865 5864 5864
5839 5841 5844 5846 5849 5852 5855 5858 5860 5862 5864 5866 5868 5870 5871 5873 5874 5875 5876 5876 5877 5877 5878 5878 5878 5878 5877 5877 5876 5875 5874 5873 5872 5871 5869 5868 5867 5866 5864 5863 5862 5861 5861